Location: *
(40.7873°S, 98.7174°E)
Time: 21:16:51
(UTC+00:00)

Cosmos 192 - Pass Details

Date: 02 October 2022
Orbit: 701 x 711 km, 74.0° (Epoch: 05 December)

Event Time Altitude Azimuth Distance (km) Brightness Sun altitude
Rises 21:02:37 0° 212° (SSW) 3,137 7.6 -21.5°
Reaches altitude 10° 21:05:16 10° 223° (SW) 2,211 6.7 -21.1°
Enters shadow 21:05:28 11° 225° (SW) 2,144 6.6 -21.1°
